This is the latest recevied weather packets stored in our database for station/object KB4MOX. If no packets are shown the sender has not sent any weather packets the latest 10 day(s).
| Time | Temp. | Humidity | Pressure | Rain* | Wind** | Luminosity | Snow |
|---|---|---|---|---|---|---|---|
| 1777640520 | 15° C | 87% | 1013.2 hPa | 0 mm | - | 43 W/m² | - |
| 1777640217 | 15° C | 85% | 1013.3 hPa | 0 mm | - | 46 W/m² | - |
| 1777639913 | 15° C | 85% | 1013.4 hPa | 0 mm | - | 42 W/m² | - |
| 1777639610 | 15° C | 85% | 1013.1 hPa | 0 mm | - | 53 W/m² | - |
| 1777639307 | 15° C | 84% | 1013.3 hPa | 0 mm | - | 39 W/m² | - |
| 1777639003 | 15° C | 83% | 1013.3 hPa | 0 mm | - | 37 W/m² | - |
| 1777638699 | 14.44° C | 82% | 1013.3 hPa | 0 mm | - | 29 W/m² | - |
| 1777638396 | 14.44° C | 83% | 1013.3 hPa | 0 mm | - | 27 W/m² | - |
| 1777638092 | 14.44° C | 82% | 1013.2 hPa | 0 mm | - | 40 W/m² | - |
| 1777637789 | 14.44° C | 82% | 1013 hPa | 0 mm | - | 25 W/m² | - |
| 1777637485 | 14.44° C | 82% | 1012.8 hPa | 0 mm | - | 26 W/m² | - |
| 1777637183 | 14.44° C | 80% | 1012.7 hPa | 0 mm | - | 26 W/m² | - |
| 1777636880 | 14.44° C | 78% | 1012.7 hPa | 0 mm | - | 28 W/m² | - |
| 1777636576 | 14.44° C | 78% | 1012.7 hPa | 0 mm | - | 26 W/m² | - |
| 1777636272 | 14.44° C | 79% | 1012.6 hPa | 0 mm | - | 24 W/m² | - |
| 1777635971 | 14.44° C | 79% | 1012.7 hPa | 0 mm | - | 19 W/m² | - |
| 1777635668 | 14.44° C | 79% | 1012.6 hPa | 0 mm | - | 19 W/m² | - |
| 1777635364 | 14.44° C | 80% | 1012.6 hPa | 0 mm | - | 17 W/m² | - |
| 1777635061 | 14.44° C | 80% | 1012.8 hPa | 0 mm | - | 11 W/m² | - |
| 1777634757 | 14.44° C | 80% | 1012.3 hPa | 0 mm | - | 8 W/m² | - |
| 1777634455 | 14.44° C | 79% | 1012.5 hPa | 0 mm | - | 6 W/m² | - |
| 1777634151 | 14.44° C | 79% | 1012.2 hPa | 0 mm | - | 6 W/m² | - |
| 1777633848 | 14.44° C | 78% | 1012.1 hPa | 0 mm | - | 6 W/m² | - |
| 1777633546 | 14.44° C | 77% | 1011.9 hPa | 0 mm | - | 5 W/m² | - |
| 1777633244 | 14.44° C | 76% | 1011.4 hPa | 0 mm | - | 4 W/m² | - |
* Rain latest hour (hover to see other rain measurements)
** Current wind speed in m/s (hover to see current wind gust speed)